Location: Unspecified
(43.4354°N, 0.0000°E)
Time: 00:49:52
(UTC+00:00)

Transit 2A - Pass Details

Date: 17 June 2019
Orbit: 596 x 962 km, 66.7° (Epoch: 18 August)

Event Time Altitude Azimuth Distance (km) Brightness Sun altitude
Rises 23:16:04 0° 146° (SE) 3,599 - -22.4°
Reaches altitude 10° 23:21:27 10° 108° (ESE) 2,693 - -22.6°
Exits shadow 23:21:52 10° 104° (ESE) 2,677 8.6 -22.6°
Maximum altitude 23:22:23 10° 99° (E) 2,671 8.6 -22.6°
Drops below altitude 10° 23:23:19 10° 91° (E) 2,698 8.7 -22.6°
Sets 23:28:43 0° 53° (NE) 3,631 9.9 -22.8°
